Wind_Speed
27 30 33 34 35 37 37 37 37 36 34 32 32 32 32 31 31 30 31 31 32 32 31 29 26 24 24 25 27 27 27 27 26 26 25 24 25 25 25 26 27 28 28 28 27 27 27 26 25 25 25 24
27 29 32 34 36 38 39 40 39 39 38 37 36 36 36 35 34 33 32 33 34 33 32 30 29 28 27 27 29 29 29 28 28 27 27 26 27 27 27 28 29 30 29 29 28 28 29 28 27 26 26 26
28 29 31 33 35 38 40 42 41 40 40 41 40 39 39 39 38 36 35 35 35 34 34 34 33 32 31 30 30 31 31 30 30 30 29 28 28 29 30 30 31 31 31 30 30 30 30 29 28 27 27 27
31 30 31 33 34 35 37 39 40 38 38 40 40 39 38 38 39 40 40 39 39 39 39 38 36 35 33 32 33 33 33 32 32 32 31 30 29 30 32 32 33 33 33 32 32 32 31 30 29 29 28 27
35 33 32 32 32 33 34 35 35 36 37 37 37 37 37 37 38 39 41 42 44 43 42 39 38 38 36 35 35 34 34 34 34 33 33 32 30 31 33 35 35 35 35 34 34 33 33 32 31 30 29 28
36 36 34 33 33 32 33 35 33 34 36 37 36 35 36 37 38 39 40 42 44 44 42 41 40 39 38 37 37 36 35 35 35 35 36 35 33 33 34 36 36 36 36 36 36 35 35 34 32 31 30 29
36 37 37 35 34 33 32 34 33 32 33 35 36 36 36 38 39 39 39 40 42 43 43 42 42 41 40 40 39 38 37 37 38 39 38 37 36 35 35 36 37 37 37 37 37 37 37 36 35 33 31 31
35 36 38 37 36 34 34 34 33 34 34 34 35 35 37 38 38 40 40 40 40 43 44 44 44 44 43 42 41 41 40 38 40 39 37 38 38 37 37 37 37 37 37 37 38 38 38 37 36 34 33 32
35 35 37 39 38 36 35 34 34 34 35 36 36 34 35 37 40 42 43 43 41 41 44 45 45 46 45 44 44 44 41 39 40 38 35 37 38 38 38 38 38 37 37 38 38 39 39 38 37 36 35 34
35 35 36 38 40 39 36 34 33 34 35 36 35 33 34 37 40 41 43 44 43 41 42 43 44 47 46 45 46 44 40 38 39 38 38 38 38 39 40 39 39 38 38 38 39 39 39 39 38 37 36 35
34 35 35 36 38 39 38 36 34 33 34 35 33 33 36 38 39 39 40 42 43 42 42 41 42 45 45 45 46 43 40 38 38 40 42 42 42 42 41 42 42 40 38 37 37 38 39 40 39 39 38 37
32 33 34 34 35 36 37 37 36 34 33 34 34 34 36 40 40 38 38 40 40 42 41 40 40 42 44 43 44 44 43 40 39 41 43 44 44 43 42 42 43 41 38 36 36 36 37 40 41 40 40 39
30 31 32 33 33 33 35 36 36 35 33 32 33 33 36 39 38 35 36 39 39 40 41 40 40 42 44 43 42 44 45 44 43 45 45 44 43 42 39 37 38 38 38 39 39 39 38 40 42 43 42 41
29 29 30 31 32 32 33 33 35 35 33 31 31 34 36 36 35 34 37 38 36 37 37 39 41 41 42 42 42 44 47 48 47 47 47 45 42 39 35 32 35 39 41 42 43 44 42 41 42 44 44 43
27 28 28 28 29 30 31 32 32 33 33 32 30 33 33 31 33 33 34 35 33 31 31 34 37 39 40 40 43 45 48 49 49 51 51 48 42 37 34 35 39 42 43 43 43 43 43 41 41 44 46 45
27 27 26 27 27 28 29 30 31 31 31 31 30 32 33 33 33 31 32 35 36 35 35 36 37 36 34 36 43 47 49 52 52 51 48 43 38 36 38 40 41 41 40 40 39 39 39 38 37 41 44 46
27 27 26 26 26 26 27 28 29 30 30 31 30 32 34 37 36 32 34 37 37 36 33 35 38 36 34 35 41 46 48 48 45 40 35 32 33 35 37 38 38 37 36 35 36 36 36 36 36 38 40 43
28 28 28 28 27 26 26 27 27 28 29 29 30 31 33 35 35 34 34 34 34 32 29 32 36 38 41 40 39 39 41 41 37 33 30 31 36 36 33 33 35 34 33 35 36 37 37 37 38 39 39 42
29 29 29 29 29 28 28 28 28 28 29 29 29 30 31 33 34 35 35 34 32 30 29 30 31 33 38 39 37 35 37 40 37 34 34 35 36 35 32 30 32 33 34 36 38 40 40 39 38 39 40 41
29 30 30 30 30 30 29 29 29 29 29 29 29 29 30 31 32 34 35 34 31 27 29 31 29 30 33 37 38 34 33 34 34 36 39 40 37 35 33 32 32 34 35 37 39 40 41 40 37 36 39 41
28 29 30 31 31 31 30 29 30 30 30 29 29 29 30 31 32 32 32 32 29 28 31 32 31 31 31 35 35 32 31 31 30 33 35 39 41 40 39 38 35 32 33 35 36 37 38 38 36 36 39 41
26 27 28 30 30 30 30 30 30 30 29 29 29 29 29 30 30 31 32 31 31 30 33 34 34 33 32 33 33 33 35 32 30 31 33 38 43 44 42 40 35 32 32 33 34 35 35 35 35 37 38 40
24 25 27 28 28 29 29 30 30 30 30 29 29 29 29 29 29 29 30 31 31 31 32 33 35 35 34 35 35 34 34 33 31 32 35 39 43 42 39 37 35 34 35 33 32 34 34 34 35 36 38 39
23 24 25 26 27 27 28 29 29 29 30 30 30 30 30 30 30 29 28 29 29 29 29 29 31 32 33 35 35 33 32 32 32 33 37 41 42 40 36 36 38 39 38 33 31 32 33 34 35 35 37 38
23 24 24 25 26 26 27 28 28 29 29 30 30 31 31 31 32 32 31 30 30 30 29 28 28 29 30 32 33 34 33 33 33 33 38 42 43 42 40 40 42 42 38 33 32 32 32 33 33 32 32 34
25 25 25 26 26 26 27 27 28 29 29 30 31 31 32 32 33 33 33 34 33 32 32 31 30 29 28 29 30 31 32 33 33 33 38 43 43 42 41 40 42 42 38 34 34 33 33 33 31 29 29 30
24 25 26 27 27 27 28 28 28 29 30 30 31 31 32 32 33 34 34 34 34 33 33 33 32 31 29 29 29 29 29 31 32 33 38 42 43 42 41 41 41 40 38 36 36 36 35 35 32 32 31 29
23 24 25 27 28 28 29 29 29 29 29 30 31 32 32 33 33 34 35 34 34 34 34 34 34 33 32 31 30 29 29 29 30 33 37 42 45 45 45 43 40 38 38 37 37 38 38 37 36 36 34 30
23 23 24 25 26 27 29 30 30 30 30 30 31 31 32 33 33 34 35 35 36 35 36 37 35 34 33 33 32 32 31 31 31 33 36 40 42 42 42 41 38 38 38 37 37 37 38 38 38 38 35 32
24 25 25 25 25 25 26 28 29 31 31 31 31 31 32 32 33 34 35 35 35 36 37 38 36 35 35 34 34 35 34 33 34 35 37 39 40 41 41 41 40 40 39 37 36 36 36 37 37 38 38 37
24 25 25 26 26 26 26 26 27 28 30 31 31 32 32 32 34 35 35 35 35 37 38 38 37 37 38 37 37 37 37 37 38 39 39 40 41 41 42 42 42 42 40 38 37 36 36 36 37 39 41 40
Wind_Direction
258 257 254 252 252 252 250 248 247 245 244 245 246 245 242 242 243 245 247 248 249 249 249 251 256 258 258 259 261 262 263 264 265 266 266 265 265 268 273 277 278 280 280 281 282 281 278 274 270 267 265 264
259 260 257 251 249 250 248 246 246 244 243 244 244 244 243 241 241 242 245 246 248 249 249 252 254 256 256 257 260 262 263 264 264 264 264 263 263 266 270 273 274 276 278 280 281 280 277 274 271 268 266 264
259 260 260 257 252 250 248 246 244 244 244 244 243 242 243 243 244 245 245 246 247 250 254 254 254 255 255 256 258 261 263 263 264 264 262 261 263 265 269 272 273 275 277 279 279 278 276 274 271 268 265 264
257 259 260 262 259 254 254 251 245 245 245 245 245 242 242 244 246 247 248 249 251 254 255 252 252 254 254 255 258 261 263 264 265 264 263 263 263 266 270 272 273 275 276 277 277 276 276 274 271 269 267 265
256 258 260 263 264 261 260 259 254 251 250 252 253 248 246 248 248 249 251 252 254 255 252 248 249 251 252 254 257 260 264 266 267 267 265 265 264 266 269 271 271 273 274 275 276 275 275 274 272 269 268 267
257 258 262 264 266 266 264 265 265 260 256 257 258 256 252 253 253 252 252 252 253 254 251 248 249 249 251 253 254 257 261 264 267 267 266 264 263 262 265 267 269 271 273 275 276 276 276 275 273 270 268 267
260 258 262 265 266 266 265 266 268 265 260 258 258 259 257 256 255 254 254 254 253 253 251 250 249 250 250 251 253 255 257 261 263 263 263 263 262 260 261 264 267 269 271 273 275 276 276 275 274 271 268 266
261 259 259 263 267 267 266 266 266 265 264 262 259 258 258 257 256 254 254 256 256 255 252 251 251 252 252 252 254 254 255 257 261 262 261 261 262 261 260 261 264 267 268 270 272 273 274 274 273 271 268 265
260 260 258 260 265 269 270 269 266 264 264 263 259 257 258 258 257 255 253 253 256 257 256 254 253 253 253 253 254 255 256 257 262 266 265 262 262 261 261 262 264 266 267 268 268 269 270 270 270 269 266 264
259 259 259 259 262 266 269 270 269 265 265 263 260 260 260 259 258 255 252 252 253 257 260 258 257 256 255 255 256 259 261 262 264 268 268 265 262 261 262 263 265 266 267 266 265 265 265 266 266 266 265 263
259 259 260 260 261 264 266 269 271 269 267 267 266 266 264 261 260 258 256 255 254 257 261 262 262 263 263 261 262 266 267 266 267 267 267 267 265 264 264 264 263 265 266 265 264 263 263 263 262 262 263 262
261 260 260 261 261 263 265 267 269 271 272 270 269 269 267 262 258 259 259 258 257 258 260 261 262 263 264 264 267 270 269 268 268 267 267 267 267 268 268 267 266 266 268 267 265 265 263 262 261 259 259 260
265 263 262 262 262 262 264 265 266 269 271 271 270 268 270 265 255 255 259 260 259 259 260 259 258 258 259 262 267 269 269 270 271 271 269 267 269 268 263 262 264 267 269 271 271 270 267 263 260 258 257 256
268 268 267 265 264 264 264 266 265 266 267 269 269 267 274 272 263 263 263 261 259 258 259 257 257 257 257 260 264 265 266 267 269 270 271 269 265 257 249 251 259 265 270 272 273 273 271 265 259 257 255 254
269 270 271 270 269 268 268 269 269 268 267 267 267 267 271 269 268 272 265 262 261 261 264 267 266 262 262 263 264 266 266 265 267 267 266 262 253 243 247 257 262 265 269 271 272 272 272 269 260 255 254 253
269 270 273 274 274 273 272 274 275 275 272 270 267 265 265 265 273 279 274 273 276 279 281 282 278 265 262 268 271 273 270 264 261 257 252 247 243 246 256 262 264 267 270 271 270 267 269 270 264 258 257 254
268 270 272 273 274 275 275 276 278 280 279 276 272 268 267 270 276 277 275 277 281 286 284 281 280 269 268 278 278 274 266 260 255 247 242 247 259 264 264 265 266 270 271 268 263 260 262 265 264 263 262 258
267 269 271 272 273 275 276 277 277 280 281 280 277 273 272 273 276 275 275 276 279 284 280 278 281 277 278 282 284 280 269 266 261 248 247 264 276 274 269 270 268 268 269 267 264 264 266 266 264 264 264 262
266 267 269 271 273 274 275 276 277 277 278 279 278 275 273 274 275 275 275 275 278 282 281 280 280 282 284 282 285 284 271 266 263 256 261 271 274 269 266 270 269 268 269 268 268 269 270 269 267 265 263 260
266 266 267 269 272 273 274 276 276 277 277 279 279 276 273 272 273 274 274 275 277 275 271 271 273 278 281 277 280 281 270 268 270 270 272 269 266 268 270 269 270 273 273 274 273 272 271 270 267 263 260 257
268 266 266 268 270 272 273 274 275 276 277 279 280 279 277 274 274 274 274 275 273 267 263 266 271 274 274 270 272 276 274 275 275 271 267 264 264 271 275 272 272 276 279 281 278 274 273 270 267 262 258 256
274 270 267 267 269 271 272 273 274 275 276 277 278 280 280 279 277 276 275 274 272 268 266 268 270 272 270 265 264 268 272 273 272 270 269 270 271 273 276 271 269 278 283 284 280 275 273 272 270 266 262 259
278 276 273 270 270 272 273 274 274 275 275 276 276 277 278 280 279 277 276 276 276 275 273 272 272 272 269 265 265 266 269 270 270 271 270 270 270 270 273 267 265 280 286 284 282 276 273 272 272 271 268 265
280 279 277 275 273 273 274 275 276 276 276 276 276 276 276 277 277 277 276 275 277 279 280 279 276 274 270 268 269 268 269 270 269 267 264 264 263 263 267 263 264 279 285 282 280 276 272 272 273 274 273 271
279 278 277 276 275 274 273 274 275 276 276 276 276 275 274 274 274 274 275 275 276 277 280 282 282 278 274 271 270 269 270 270 267 263 258 257 258 260 264 264 267 277 281 278 276 274 273 273 272 273 274 274
279 278 276 275 274 274 273 272 273 273 273 273 273 273 273 272 273 273 274 275 276 276 276 279 282 281 279 275 273 272 271 270 266 258 254 253 255 260 264 267 273 277 277 276 275 273 272 271 269 270 273 276
284 281 278 277 275 274 274 273 272 272 272 272 271 271 270 270 271 272 274 275 275 276 276 276 278 278 279 278 276 275 274 275 269 256 252 255 259 263 266 271 276 276 274 275 274 272 270 269 268 266 270 279
291 287 284 281 279 277 276 275 274 273 272 271 271 270 270 269 270 271 273 274 275 277 278 277 275 273 274 276 276 276 274 276 273 261 255 259 264 267 269 274 275 273 272 271 271 271 268 267 267 263 267 281
298 295 292 288 285 283 280 279 277 276 274 273 272 270 269 271 272 273 273 274 275 278 280 280 277 274 274 275 276 277 276 276 277 272 267 268 272 274 274 275 274 271 268 267 268 271 269 267 268 265 266 276
299 298 297 295 292 289 287 284 282 281 279 277 276 273 271 270 270 272 273 275 276 277 279 279 278 279 280 277 275 275 273 273 274 274 274 275 276 277 277 275 272 267 264 265 269 271 270 269 269 267 266 270
296 296 296 296 295 294 292 290 288 286 284 282 281 278 276 273 271 271 272 274 274 275 275 273 273 277 279 276 275 275 272 270 270 270 270 272 273 274 275 274 270 264 259 263 270 272 271 270 268 267 266 269
Height
3170 3171 3171 3172 3172 3173 3174 3174 3174 3175 3175 3175 3175 3175 3174 3174 3175 3175 3176 3176 3176 3176 3177 3178 3179 3180 3180 3179 3177 3176 3176 3176 3176 3176 3177 3177 3176 3176 3175 3175 3174 3173 3172 3173 3173 3174 3174 3174 3174 3174 3174 3174
3167 3167 3167 3167 3168 3168 3168 3169 3170 3170 3171 3171 3171 3171 3170 3170 3171 3171 3172 3172 3172 3173 3174 3175 3176 3177 3177 3177 3175 3174 3173 3173 3173 3173 3174 3174 3174 3173 3172 3172 3170 3170 3170 3170 3171 3171 3171 3172 3172 3172 3172 3172
3164 3164 3164 3163 3164 3164 3163 3163 3164 3165 3166 3165 3166 3166 3167 3167 3168 3168 3168 3168 3168 3169 3171 3172 3173 3173 3174 3174 3173 3172 3171 3171 3171 3171 3171 3171 3171 3170 3169 3168 3167 3167 3167 3167 3168 3168 3168 3169 3169 3169 3169 3169
3161 3161 3161 3161 3160 3161 3161 3160 3160 3160 3160 3160 3161 3161 3163 3164 3165 3165 3165 3165 3166 3167 3169 3170 3170 3170 3171 3171 3171 3170 3169 3169 3168 3168 3168 3168 3169 3168 3167 3165 3164 3164 3164 3164 3164 3165 3165 3166 3166 3166 3167 3167
3158 3158 3158 3158 3157 3158 3159 3159 3158 3158 3158 3158 3158 3159 3160 3161 3162 3162 3162 3163 3163 3164 3166 3167 3167 3166 3167 3168 3167 3167 3167 3166 3166 3165 3165 3166 3167 3166 3164 3162 3161 3161 3160 3161 3161 3162 3162 3163 3164 3164 3164 3164
3155 3154 3155 3155 3155 3155 3156 3155 3155 3155 3156 3156 3156 3157 3158 3159 3159 3159 3159 3159 3159 3161 3163 3163 3163 3163 3164 3164 3164 3164 3164 3164 3163 3162 3162 3163 3163 3163 3162 3160 3158 3158 3158 3157 3158 3158 3159 3160 3161 3161 3162 3161
3151 3151 3152 3152 3152 3152 3153 3152 3152 3152 3152 3153 3153 3154 3156 3156 3156 3157 3157 3156 3156 3158 3159 3160 3159 3159 3160 3160 3160 3161 3161 3160 3160 3159 3158 3159 3159 3160 3159 3158 3156 3155 3155 3154 3154 3155 3155 3156 3157 3158 3159 3159
3148 3148 3148 3149 3148 3149 3149 3149 3149 3149 3149 3150 3151 3152 3153 3153 3153 3153 3153 3153 3153 3154 3155 3155 3155 3155 3156 3157 3157 3156 3157 3157 3156 3155 3155 3155 3155 3156 3156 3155 3154 3153 3152 3151 3151 3151 3151 3152 3153 3154 3155 3156
3144 3145 3145 3145 3145 3146 3146 3146 3147 3147 3146 3146 3147 3149 3149 3150 3150 3149 3149 3149 3149 3150 3151 3151 3152 3151 3152 3152 3152 3151 3152 3153 3152 3152 3152 3151 3151 3152 3152 3152 3151 3150 3149 3148 3148 3148 3148 3148 3149 3150 3151 3152
3141 3141 3142 3142 3143 3143 3143 3144 3144 3145 3144 3143 3143 3145 3146 3146 3145 3144 3144 3144 3145 3146 3147 3147 3147 3147 3147 3148 3147 3147 3148 3149 3148 3148 3148 3148 3147 3147 3147 3148 3148 3147 3146 3145 3145 3145 3145 3145 3145 3146 3147 3148
3138 3138 3138 3139 3139 3139 3140 3140 3141 3141 3142 3141 3141 3143 3143 3142 3143 3141 3140 3141 3142 3142 3143 3144 3144 3143 3143 3144 3144 3144 3144 3145 3145 3144 3144 3144 3143 3143 3143 3143 3144 3143 3143 3142 3142 3142 3142 3141 3142 3142 3143 3143
3135 3135 3135 3136 3136 3136 3136 3136 3137 3138 3138 3139 3139 3139 3139 3139 3139 3138 3137 3137 3138 3139 3140 3140 3140 3140 3140 3140 3141 3141 3140 3141 3142 3141 3141 3140 3139 3139 3139 3138 3139 3139 3139 3139 3139 3139 3139 3139 3138 3138 3139 3139
3132 3132 3132 3132 3133 3133 3133 3133 3133 3134 3135 3136 3136 3136 3135 3134 3134 3134 3133 3134 3134 3135 3136 3136 3136 3136 3136 3136 3137 3138 3137 3138 3138 3138 3137 3136 3136 3136 3135 3134 3134 3134 3135 3135 3135 3135 3136 3135 3135 3135 3135 3135
3130 3130 3130 3130 3130 3130 3130 3130 3130 3131 3132 3133 3133 3133 3131 3130 3130 3130 3130 3130 3130 3131 3131 3132 3133 3132 3132 3133 3134 3134 3134 3134 3134 3133 3132 3132 3132 3132 3131 3130 3130 3131 3131 3131 3131 3131 3131 3131 3131 3131 3131 3131
3127 3127 3127 3127 3127 3127 3127 3127 3127 3128 3129 3129 3130 3129 3128 3128 3127 3126 3127 3127 3126 3126 3126 3127 3129 3129 3129 3130 3130 3130 3130 3130 3129 3128 3127 3127 3127 3127 3127 3126 3126 3126 3126 3126 3126 3126 3126 3126 3126 3126 3127 3127
3124 3125 3125 3125 3125 3125 3125 3125 3125 3125 3125 3126 3126 3126 3126 3125 3124 3123 3124 3124 3123 3124 3124 3123 3124 3124 3125 3127 3128 3127 3126 3124 3123 3122 3121 3122 3122 3123 3123 3123 3123 3122 3122 3122 3122 3122 3122 3122 3122 3122 3122 3123
3122 3122 3122 3122 3122 3122 3123 3122 3122 3122 3122 3122 3122 3123 3122 3122 3121 3121 3122 3121 3120 3121 3121 3121 3121 3121 3122 3123 3125 3124 3122 3120 3120 3119 3119 3120 3120 3120 3120 3120 3120 3119 3119 3119 3119 3119 3118 3118 3118 3118 3118 3118
3119 3119 3119 3119 3119 3119 3120 3120 3120 3119 3119 3119 3119 3119 3119 3119 3118 3118 3119 3118 3118 3118 3118 3118 3118 3118 3118 3119 3120 3119 3119 3118 3118 3118 3118 3118 3117 3117 3118 3118 3117 3117 3117 3117 3116 3116 3115 3115 3114 3114 3113 3113
3116 3116 3116 3116 3116 3116 3117 3117 3117 3116 3116 3116 3116 3116 3116 3116 3115 3115 3115 3115 3115 3115 3115 3115 3115 3115 3115 3115 3115 3115 3115 3115 3116 3115 3115 3115 3114 3114 3114 3114 3114 3114 3114 3114 3113 3113 3112 3111 3111 3110 3110 3109
3113 3113 3113 3113 3113 3113 3113 3113 3113 3113 3113 3113 3113 3113 3113 3113 3113 3112 3112 3112 3112 3113 3112 3112 3112 3112 3113 3112 3112 3113 3113 3112 3112 3112 3111 3111 3111 3111 3111 3111 3111 3110 3110 3110 3109 3109 3108 3108 3108 3107 3107 3106
3110 3110 3110 3110 3110 3110 3110 3110 3110 3110 3110 3110 3111 3111 3110 3110 3110 3110 3109 3109 3109 3110 3110 3109 3109 3109 3109 3109 3109 3109 3109 3109 3109 3108 3108 3108 3108 3107 3108 3108 3108 3107 3107 3106 3105 3105 3104 3104 3104 3104 3104 3104
3107 3107 3107 3107 3107 3107 3107 3107 3107 3107 3107 3107 3107 3107 3107 3107 3107 3107 3107 3107 3106 3106 3106 3106 3106 3106 3106 3105 3106 3106 3106 3106 3105 3105 3105 3104 3103 3103 3104 3104 3104 3104 3103 3102 3101 3101 3100 3100 3100 3100 3100 3100
3104 3104 3104 3104 3104 3104 3104 3104 3104 3104 3104 3104 3104 3104 3104 3104 3104 3104 3104 3104 3103 3103 3103 3103 3103 3102 3102 3102 3102 3102 3102 3101 3101 3101 3101 3100 3099 3099 3099 3100 3100 3100 3100 3099 3098 3097 3097 3097 3097 3096 3096 3096
3102 3102 3101 3101 3101 3101 3101 3101 3101 3101 3101 3100 3100 3100 3100 3101 3101 3101 3101 3101 3100 3100 3100 3100 3099 3099 3098 3098 3098 3098 3097 3097 3097 3097 3097 3096 3095 3095 3096 3096 3096 3096 3096 3095 3095 3094 3093 3093 3093 3093 3092 3091
3099 3099 3099 3098 3098 3098 3098 3098 3098 3098 3098 3097 3097 3097 3097 3097 3097 3097 3097 3097 3097 3096 3096 3096 3096 3095 3095 3094 3094 3094 3093 3093 3093 3093 3093 3092 3091 3091 3092 3092 3092 3091 3092 3091 3091 3090 3090 3089 3089 3089 3088 3087
3097 3097 3096 3096 3095 3095 3095 3095 3095 3095 3094 3094 3094 3093 3093 3093 3093 3093 3093 3093 3093 3093 3092 3092 3092 3091 3091 3091 3090 3090 3090 3090 3089 3089 3089 3088 3087 3088 3088 3088 3088 3087 3087 3087 3086 3086 3085 3084 3084 3084 3084 3083
3095 3094 3093 3093 3092 3092 3092 3092 3091 3091 3091 3090 3090 3090 3090 3090 3089 3089 3089 3089 3089 3088 3088 3088 3088 3087 3087 3086 3086 3086 3086 3086 3085 3085 3085 3084 3084 3084 3084 3084 3083 3083 3082 3082 3082 3082 3081 3080 3080 3079 3079 3079
3092 3091 3091 3090 3089 3089 3089 3088 3088 3087 3087 3087 3086 3086 3086 3086 3086 3086 3085 3085 3085 3085 3085 3085 3085 3084 3083 3082 3082 3081 3081 3081 3081 3081 3081 3080 3080 3080 3079 3079 3078 3078 3078 3078 3078 3077 3076 3076 3075 3074 3075 3075
3089 3088 3088 3087 3087 3086 3085 3085 3084 3084 3083 3083 3083 3082 3082 3082 3082 3082 3082 3081 3081 3081 3080 3080 3080 3080 3080 3079 3078 3078 3077 3077 3077 3077 3076 3076 3075 3075 3075 3074 3074 3073 3073 3073 3073 3072 3071 3071 3070 3070 3071 3071
3086 3086 3085 3084 3083 3083 3082 3082 3081 3080 3080 3079 3079 3079 3079 3079 3079 3078 3078 3078 3077 3077 3077 3076 3075 3075 3075 3075 3075 3074 3074 3073 3072 3072 3072 3071 3070 3070 3070 3070 3069 3068 3068 3068 3068 3067 3067 3066 3066 3066 3067 3065
3083 3083 3082 3081 3080 3080 3079 3078 3078 3077 3077 3076 3075 3075 3075 3075 3074 3074 3074 3074 3074 3073 3073 3072 3071 3071 3070 3070 3070 3070 3069 3068 3068 3068 3067 3067 3066 3065 3065 3064 3064 3063 3064 3063 3063 3063 3062 3062 3062 3062 3062 3061